Regional Weather Roundup
Issued by NWS Northern Indiana

Home | Current Version | Previous Version | Graphics & Text | Print | Product List | Glossary On
Versions: 1 2 3 4 5 6 7 8 9 10 11 12 13 14 15 16 17 18 19 20 21 22 23 24 25 26 27 28 29 30 31 32 33 34 35 36 37 38 39 40 41 42 43 44 45 46 47 48 49 50
000
ASUS43 KIWX 262010
RWRIWX

KIWX WEATHER ROUNDUP
NATIONAL WEATHER SERVICE NORTHERN INDIANA
400 PM EDT TUE JUL 26 2016

NOTE: "FAIR" INDICATES FEW OR NO CLOUDS BELOW 12,000 FEET WITH NO
SIGNIFICANT WEATHER AND/OR OBSTRUCTIONS TO VISIBILITY.

* THESE STATIONS ARE NOT UNDER NWS QUALITY CONTROL. THEY ALSO MAY NOT
  REPORT WEATHER SUCH AS PRECIPITATION OR FOG.

INZ001>027-262100-
NORTHERN INDIANA

CITY           SKY/WX    TMP DP  RH WIND       PRES   REMARKS
GARY*          MOSUNNY   84  70  61 N7        30.03F
VALPARAISO     MOSUNNY   85  66  53 VRB5      30.04F
MICHIGAN CITY* SUNNY     82  64  54 N8        30.04S
LAPORTE*       MOSUNNY   84  64  50 CALM      30.04F
KNOX*          SUNNY     82  52  34 E3        30.03F
SOUTH BEND     MOSUNNY   86  60  41 CALM      30.03F
GOSHEN         MOSUNNY   84  59  42 N8        30.03F
MONTICELLO*    MOSUNNY   83  62  48 CALM      30.02F
LOGANSPORT*    MOSUNNY   82  63  51 SE3       30.03F
WARSAW*        MOSUNNY   81  63  54 CALM      30.03F
ANGOLA*          N/A     88  82  84 W5        30.03F HX 108
FORT WAYNE     PTSUNNY   86  62  44 VRB6      30.02F
HUNTINGTON*    PTSUNNY   83  63  51 SW5       30.02F
PERU/GRISSOM   MOSUNNY   85  63  46 VRB3      30.01F
MARION*        CLOUDY    83  62  49 CALM      30.03F

$$
INZ028>050-262100-
CENTRAL INDIANA

CITY           SKY/WX    TMP DP  RH WIND       PRES   REMARKS
LAFAYETTE      SUNNY     82  64  54 SE7       30.01F
KOKOMO*        MOSUNNY   84  64  51 N5        30.02F
MUNCIE*        CLOUDY    82  67  60 CALM      30.03F
INDIANAPOLIS   CLOUDY    79  68  69 E5        30.03F

$$
MIZ043>046-050>051-056>058-064>065-071>073-077>080-262100-
SOUTHWEST LOWER MICHIGAN

CITY           SKY/WX    TMP DP  RH WIND       PRES   REMARKS
BATTLE CREEK   MOSUNNY   82  61  48 N3        30.04F
BENTON HARBOR  SUNNY     82  63  52 NW8       30.04F
COLDWATER*     SUNNY     83  57  41 CALM      30.04F
HOLLAND        SUNNY     83  67  58 W10       30.05F
GRAND RAPIDS   PTSUNNY   83  62  49 SW10      30.02F
KALAMAZOO      MOSUNNY   83  59  44 CALM      30.03F
STURGIS*       MOSUNNY   82  60  47 CALM      30.03F
THREE RIVERS*  FAIR      84  59  41 CALM      30.04F

$$
OHZ001>008-015>018-024>025-262100-
NORTHWEST OHIO

CITY           SKY/WX    TMP DP  RH WIND       PRES   REMARKS
DEFIANCE       PTSUNNY   85  59  41 SW5       30.02F
FINDLAY        CLOUDY    86  61  42 CALM      30.01F
TOLEDO EXPRESS SUNNY     86  59  39 VRB5      30.01F
TOLEDO METCALF MOSUNNY   85  61  44 NE6       30.02F
LIMA           CLOUDY    82  66  58 VRB3      30.02F

$$
AND FOR LAKE MICHIGAN COASTAL AND OPEN LAKE BUOY OBSERVATIONS

STATION/POSITION TEMP    WIND        PRES    VSBY  WAVE
                 AIR SEA DIR/SP/G                  HT/PER
                 (F)     (DEG/KT/KT) (MB)    (MI)  (FT/S)
CALUMET HARBOR    78      40/  7/  9 1016.7F
MICHIGAN CITY     77     350/  8/  9   N/A
BURNS HARBOR      77      40/  8/  8 1017.6F
SAINT JOSEPH      79     300/  5/  6 1018.6R
SOUTH LAKE BUOY   76 77  230/  4/  6 1016.8F         0
4 MI NW BRIDGMAN  77 78  320/  8/ 10 1016.6F         1
MICHIGAN CITY     77 77   10/  6/  8   N/A           0

$$
&&




USA.gov is the U.S. government's official web portal to all federal, state and local government web resources and services.